Location: Sternwarte ZA, Rosenfeld-Brittheim
(48.2889°N, 8.6789°E)
Time: 21:57:22
(UTC+01:00)

ISS - Pass Details

Date: 27 February 2021
Orbit: 417 x 422 km, 51.6° (Epoch: 02 March)

Event Time Altitude Azimuth Distance (km) Brightness Sun altitude
Exits shadow 04:52:06 43° 86° (E) 600 -2.6 -23.6°
Drops below altitude 10° 04:54:32 10° 70° (ENE) 1,499 0.1 -23.3°
Sets 04:56:38 0° 68° (ENE) 2,366 1.5 -22.9°
